sat.trackr.live / text

‹ back to catalog

STARLINK-6359

NORAD 57346 · 2023-099U

PAYLOAD ACTIVE UNKNOWN

§ Identity

Operator
Country
US
Launch date
2023-07-16
Launch site
AFETR
Launch vehicle
Mass (kg)
RCS (m²)

Purposes: comms

External: N2YO · Heavens-Above · Gunter

§ Orbital elements

Epoch: 2026-09-20T05:18:36.412128Z

Period
94.27 min
Inclination
43.0030°
Eccentricity
0.0000846
Mean motion
15.27574872 rev/d
Perigee alt
482.5 km
Apogee alt
483.6 km
Semi-major
6,861.2 km
B*
2.4889e-5
RAAN
230.7100°
Arg perigee
269.0921°
Mean anomaly
90.9834°
Rev number
17,586

§ Raw data

STARLINK-63591 57346U 23099U   26263.22125477  .00000423  00000+0  24889-4 0  99902 57346  43.0030 230.7100 0000846 269.0921  90.9834 15.27574872175865

JSON: /api/v1/satellites/57346 · /tle

For live sub-satellite position, see the globe view (requires WebGL).

§ Visibility from observer

Set your observer location to see the next 7 days of passes ≥ 10°. The values pass through the URL so the page stays shareable.

No JS? Fill the form by hand. The geolocation button needs JavaScript.